[[{"header":{"parameterUnit":"m.s-1","parameterCategory":1,"la1":30.2991,"la2":30.254,"lo1":-89.0895,"lo2":-89.0444,"dy":0.0017,"dx":0.0017,"nx":28,"ny":28,"refTime":"2026-01-30T03:00:00:Z","depth":0,"parameterNumber":2,"parameterNumberName":"U-component_of_WINDS"},"data":[0,0,0,0,0,0,0,0,0,0,0,0,0,0,0,0,0,0,0,0,0,0,0,0,0,0,0,0,0,0,0,0,0,0,0,0,0,0,0,0,0,0,0,0,0,0,0,0,0,0,0,0,0,0,0,0,0,0,-1.9807,-1.9807,0,-1.9837,-1.9837,-1.9838,-1.9819,-1.9819,-1.9818,-1.9817,-1.9848,-1.9849,-1.9851,0,0,0,0,0,0,0,0,0,0,0,0,0,-1.9736,-1.9737,-1.9807,-1.9807,-1.9808,-1.9837,-1.9837,-1.9838,-1.982,-1.9819,-1.9818,-1.9817,-1.9847,-1.9849,-1.9851,0,0,0,0,0,0,0,0,0,0,0,0,0,-1.9766,-1.9738,-1.9807,-1.9802,-1.9802,-1.9837,-1.9837,-1.9838,-1.982,-1.9819,-1.9817,-1.9816,-1.9847,-1.9849,-1.9851,-1.9892,0,0,-1.9859,-1.986,0,0,0,0,0,0,0,0,-1.9765,-1.9769,-1.9802,-1.9803,-1.9802,-1.9823,-1.9824,-1.9856,-1.982,-1.9813,-1.9817,-1.9815,-1.9841,-1.9843,-1.9852,-1.9894,-1.9895,-1.9859,-1.9861,-1.9862,-1.9862,0,0,0,0,0,0,0,-1.9763,-1.9768,-1.9819,-1.9803,-1.9803,-1.9799,-1.9802,-1.983,-1.9834,-1.9814,-1.9812,-1.9816,-1.984,-1.985,-1.9853,-1.9896,-1.9859,-1.9861,-1.9863,-1.9864,-1.9974,-1.9976,0,0,0,0,0,0,-1.9761,-1.9766,-1.9818,-1.982,-1.978,-1.9802,-1.9805,-1.9818,-1.9833,-1.9835,-1.9817,-1.9815,-1.9846,-1.985,-1.9854,-1.9902,-1.9862,-1.9864,-1.9865,-1.9973,-1.9975,-1.9976,0,0,0,0,0,0,-1.9759,-1.9765,-1.9817,-1.9793,-1.9799,-1.9804,-1.9819,-1.9819,-1.9828,-1.9836,-1.9837,-1.9826,-1.9845,-1.985,-1.9883,-1.9903,-1.9865,-1.9867,-1.9971,-1.9973,-1.9976,-2.0001,0,0,0,0,0,0,-1.9757,-1.9765,-1.978,-1.9793,-1.98,-1.9845,-1.982,-1.9821,-1.9832,-1.983,-1.9844,-1.9845,-1.9845,-1.988,-1.9886,-1.9906,-1.9869,-1.9969,-1.9972,-1.9975,-1.9998,-2.0004,-2.0008,0,0,0,0,0,-1.9755,-1.9786,-1.9781,-1.9787,-1.9819,-1.9846,-1.985,-1.9848,-1.9834,-1.9849,-1.9855,-1.9845,-1.9901,-1.9883,-1.989,-1.9911,-1.9968,-1.9971,-1.9975,-1.9996,-2.0003,-2.0008,0,0,0,0,0,0,-1.9774,-1.9787,-1.9782,-1.9818,-1.9831,-1.9843,-1.9862,-1.9856,-1.9873,-1.987,-1.9868,-1.9871,-1.9905,-1.9912,-1.9892,-1.9953,-1.9932,-1.9937,-1.9946,-1.9953,-1.9958,-1.9954,-1.9871,0,0,0,0,0,-1.9783,-1.9803,-1.9814,-1.9845,-1.9852,-1.9856,-1.9868,-1.9866,-1.9879,-1.9885,-1.9893,-1.9907,-1.9927,-1.9941,-1.9961,-2.0,-2.0003,-2.0019,-2.0024,-2.0028,-2.0031,-2.0053,-2.006,-1.9987,-1.9987,-1.9987,0,0,-1.98,-1.981,-1.9823,-1.9849,-1.9859,-1.9881,-1.9861,-1.9884,-1.9901,-1.9888,-1.9919,-1.9927,-1.9942,-1.9979,-1.9996,-1.9985,-2.0053,-2.0032,-2.0035,-2.0036,-2.0057,-2.0064,-2.007,-1.9989,-1.9989,-1.9989,0,0,-1.9842,-1.9852,-1.9879,-1.989,-1.9906,-1.9909,-1.9916,-1.993,-1.9934,-1.9966,-1.9957,-1.9978,-2.0013,-2.0025,-2.0035,-2.0086,-2.0077,-2.0093,-2.0118,-2.014,-2.0146,-2.0151,-2.0168,-2.0174,-2.0097,-2.0097,-2.0097,0,-1.9862,-1.9894,-1.9894,-1.9918,-1.993,-1.9922,-1.9949,-1.996,-1.9982,-1.999,-1.998,-2.0025,-2.0035,-2.0075,-2.0087,-2.0097,-2.0104,-2.009,-2.0145,-2.015,-2.0155,-2.0171,-2.0178,-2.0099,-2.0099,-2.0098,-2.0098,0,-1.9917,-1.994,-1.996,-1.9981,-1.9996,-2.0022,-2.0026,-2.0041,-2.0039,-2.0044,-2.0078,-2.009,-2.0112,-2.0122,-2.012,-2.0162,-2.0155,-2.0145,-2.0124,-2.0163,-2.0179,-2.0185,-2.0101,-2.01,-2.01,-2.01,0,0,-1.9968,-1.9991,-1.9998,-2.0008,-2.0027,-2.0045,-2.0072,-2.0094,-2.0107,-2.0124,-2.0146,-2.0178,-2.0169,-2.0181,-2.0181,-2.0201,-2.024,-2.0188,-2.0188,-2.0196,-2.0286,-2.0292,-2.0299,-2.0236,-2.0237,-2.0238,-2.0285,0,-2.001,-2.0056,-2.0058,-2.01,-2.0121,-2.0116,-2.0139,-2.0154,-2.016,-2.018,-2.0187,-2.0209,-2.0196,-2.0204,-2.0223,-2.0231,-2.0257,-2.0228,-2.0256,-2.0257,-2.0249,-2.0308,-2.0313,-2.0357,-2.0291,-2.0292,-2.0293,0,-2.0065,-2.0083,-2.0127,-2.0144,-2.0153,-2.0174,-2.0195,-2.0215,-2.0232,-2.0235,-2.0251,-2.0248,-2.0277,-2.0258,-2.0297,-2.0277,-2.0289,-2.0296,-2.0297,-2.0297,-2.0275,-2.0308,-2.037,-2.0376,-2.0302,-2.0301,-2.0301,0,-2.0096,-2.0132,-2.0163,-2.0173,-2.0194,-2.0208,-2.0218,-2.0234,-2.0248,-2.0268,-2.0277,-2.0299,-2.0311,-2.033,-2.0334,-2.032,-2.0373,-2.0355,-2.0377,-2.0376,-2.0385,-2.0384,-2.0449,-2.0397,-2.0397,-2.0397,-2.0397,0,-2.0141,-2.0168,-2.0178,-2.0196,-2.0227,-2.0231,-2.0261,-2.027,-2.0285,-2.0306,-2.0304,-2.0324,-2.033,-2.0351,-2.0356,-2.0387,-2.0393,-2.0397,-2.0397,-2.0395,-2.0395,-2.0401,-2.0397,-2.0399,-2.0399,-2.0398,-2.0398,0,-2.0179,-2.0187,-2.0221,-2.0239,-2.0244,-2.0266,-2.0282,-2.03,-2.0308,-2.0335,-2.0341,-2.0353,-2.0378,-2.0386,-2.0416,-2.0419,-2.0456,-2.0455,-2.045,-2.0449,-2.047,-2.0468,-2.0539,-2.0549,-2.0493,-2.0494,-2.0494,0,-2.0206,-2.0227,-2.0248,-2.0262,-2.0272,-2.0295,-2.0309,-2.0315,-2.0331,-2.0354,-2.037,-2.0395,-2.0415,-2.0457,-2.0468,-2.0492,-2.049,-2.0514,-2.0493,-2.0491,-2.0488,-2.0486,-2.0488,-2.0516,-2.0517,-2.0517,-2.0518,0,-2.0253,-2.0257,-2.0277,-2.03,-2.0318,-2.0336,-2.0354,-2.0366,-2.0374,-2.0392,-2.0418,-2.0434,-2.0466,-2.0492,-2.0516,-2.0527,-2.0524,-2.0525,-2.0531,-2.0528,-2.0524,-2.0525,-2.0458,-2.0522,-2.0522,-2.0522,-2.0521,-2.0521,-2.0285,-2.0303,-2.0321,-2.0345,-2.036,-2.0377,-2.0395,-2.0406,-2.0428,-2.0454,-2.0457,-2.0486,-2.0505,-2.0538,-2.0551,-2.0573,-2.0566,-2.0575,-2.0577,-2.0579,-2.058,-2.0523,-2.0578,-2.0578,-2.0578,-2.0578,-2.0578,0,-2.033,-2.0342,-2.0365,-2.039,-2.0409,-2.0406,-2.0426,-2.0442,-2.0467,-2.0486,-2.0506,-2.0537,-2.0563,-2.0577,-2.0603,-2.0619,-2.0618,-2.0625,-2.0622,-2.0625,-2.0585,-2.0576,-2.0625,-2.0625,-2.0625,-2.0625,-2.0625,-2.0625,-2.0356,-2.0386,-2.0393,-2.0431,-2.0444,-2.0471,-2.0483,-2.0499,-2.0514,-2.0548,-2.057,-2.058,-2.0597,-2.0624,-2.0648,-2.0652,-2.0661,-2.0668,-2.0671,-2.0633,-2.0628,-2.0623,-2.0615,-2.067,-2.0671,-2.0709,-2.0709,-2.0709]},{"header":{"parameterUnit":"m.s-1","parameterCategory":1,"la1":30.2991,"la2":30.254,"lo1":-89.0895,"lo2":-89.0444,"dy":0.0017,"dx":0.0017,"nx":28,"ny":28,"refTime":"2026-01-30T03:00:00:Z","depth":0,"parameterNumber":3,"parameterNumberName":"V-component_of_WINDS"},"data":[0,0,0,0,0,0,0,0,0,0,0,0,0,0,0,0,0,0,0,0,0,0,0,0,0,0,0,0,0,0,0,0,0,0,0,0,0,0,0,0,0,0,0,0,0,0,0,0,0,0,0,0,0,0,0,0,0,0,2.5122,2.5122,0,2.5167,2.5168,2.5168,2.5225,2.5226,2.5227,2.5228,2.527,2.5271,2.5271,0,0,0,0,0,0,0,0,0,0,0,0,0,2.5081,2.5082,2.5122,2.5122,2.5123,2.5167,2.5168,2.5168,2.5225,2.5226,2.5227,2.5228,2.527,2.527,2.5271,0,0,0,0,0,0,0,0,0,0,0,0,0,2.511,2.5082,2.5122,2.5156,2.516,2.5167,2.5168,2.5169,2.5225,2.5226,2.5227,2.5229,2.527,2.527,2.5271,2.5246,0,0,2.5272,2.5272,0,0,0,0,0,0,0,0,2.5108,2.5111,2.5151,2.5154,2.5158,2.5192,2.5169,2.5195,2.5224,2.52,2.5228,2.5229,2.5243,2.5246,2.5251,2.5248,2.525,2.5272,2.5273,2.5273,2.5273,0,0,0,0,0,0,0,2.5106,2.511,2.514,2.5151,2.5156,2.5169,2.5175,2.5174,2.5213,2.5202,2.5206,2.5211,2.5245,2.525,2.5252,2.5251,2.5272,2.5273,2.5273,2.5273,2.5232,2.5231,0,0,0,0,0,0,2.5099,2.5107,2.5138,2.5141,2.5136,2.5169,2.5175,2.518,2.5213,2.522,2.521,2.5214,2.5249,2.5252,2.5254,2.5229,2.5273,2.5273,2.5273,2.5233,2.5232,2.523,0,0,0,0,0,0,2.5098,2.5101,2.5136,2.5126,2.5131,2.5168,2.5173,2.518,2.5185,2.5219,2.5226,2.5209,2.525,2.5254,2.5249,2.5231,2.5273,2.5274,2.5235,2.5233,2.5231,2.5178,0,0,0,0,0,0,2.5097,2.5101,2.5092,2.5125,2.5131,2.5131,2.5172,2.518,2.5186,2.5192,2.522,2.5226,2.5252,2.5248,2.5249,2.5233,2.5274,2.5237,2.5234,2.5232,2.5181,2.5174,2.5168,0,0,0,0,0,2.5095,2.5074,2.5092,2.5095,2.5122,2.513,2.5133,2.5165,2.5185,2.5176,2.5199,2.5225,2.5233,2.5247,2.5249,2.5232,2.5238,2.5235,2.5232,2.5184,2.5176,2.5169,0,0,0,0,0,0,2.5037,2.5079,2.5099,2.5088,2.5105,2.5139,2.513,2.5154,2.5165,2.5169,2.5206,2.5212,2.5203,2.5217,2.5231,2.5211,2.5239,2.5237,2.5203,2.5195,2.5188,2.5185,2.5274,0,0,0,0,0,2.5023,2.5027,2.5063,2.505,2.5058,2.5092,2.5096,2.512,2.5138,2.5145,2.5167,2.5183,2.5189,2.5193,2.52,2.5184,2.5191,2.5173,2.5167,2.5161,2.5159,2.5153,2.5145,2.522,2.522,2.522,0,0,2.4994,2.5017,2.5017,2.5039,2.5055,2.5058,2.5098,2.5098,2.5101,2.5145,2.5143,2.5159,2.5179,2.5169,2.5165,2.518,2.514,2.5157,2.5153,2.5153,2.5149,2.5142,2.5135,2.5218,2.5219,2.5219,0,0,2.4942,2.496,2.4953,2.4968,2.4992,2.5016,2.5014,2.5045,2.5058,2.5056,2.509,2.5093,2.5102,2.5116,2.5125,2.508,2.5105,2.5081,2.5048,2.5041,2.5035,2.503,2.5016,2.501,2.5079,2.5078,2.5078,0,2.4903,2.491,2.4945,2.4945,2.4953,2.4995,2.4988,2.5,2.5025,2.503,2.5047,2.5062,2.5078,2.5072,2.5062,2.5067,2.5066,2.5079,2.5033,2.5029,2.5025,2.5011,2.5006,2.5075,2.5076,2.5076,2.5076,0,2.486,2.4864,2.4855,2.488,2.4888,2.4884,2.4918,2.4921,2.4944,2.4965,2.4963,2.4985,2.4999,2.4999,2.5019,2.4996,2.5005,2.5027,2.5056,2.5014,2.5002,2.4997,2.5071,2.5072,2.5073,2.5074,0,0,2.4773,2.482,2.4816,2.4829,2.4859,2.4862,2.486,2.4875,2.4878,2.4893,2.4893,2.4901,2.4922,2.4932,2.4955,2.4949,2.4914,2.4972,2.4973,2.4961,2.4891,2.4876,2.4869,2.4931,2.493,2.4929,2.489,0,2.4729,2.4729,2.4762,2.4753,2.4757,2.4798,2.4796,2.4814,2.4834,2.484,2.4862,2.4868,2.4895,2.4901,2.4897,2.4919,2.4901,2.4922,2.4931,2.493,2.4926,2.4863,2.4846,2.4808,2.4886,2.4885,2.4884,0,2.4677,2.4692,2.4684,2.4717,2.472,2.4718,2.4735,2.4741,2.4762,2.4777,2.4789,2.4815,2.4815,2.4842,2.4843,2.4857,2.4862,2.4874,2.4873,2.4876,2.4906,2.4865,2.4797,2.4791,2.4877,2.4878,2.4878,0,2.4616,2.4634,2.4633,2.4642,2.4679,2.4677,2.4693,2.4716,2.4723,2.4738,2.4743,2.4757,2.4764,2.4774,2.4803,2.482,2.4801,2.483,2.4813,2.4813,2.4808,2.4808,2.4741,2.4809,2.4809,2.4809,2.4809,0,2.4564,2.4558,2.4606,2.4605,2.46,2.4637,2.463,2.4649,2.4669,2.4672,2.4707,2.4709,2.4748,2.4754,2.4776,2.4774,2.4777,2.4789,2.4795,2.4787,2.4785,2.4791,2.4795,2.4808,2.4808,2.4809,2.4809,0,2.4495,2.4528,2.4529,2.4565,2.4574,2.4568,2.4599,2.4599,2.4622,2.4625,2.4628,2.4663,2.4673,2.4703,2.4719,2.4735,2.4726,2.4737,2.4719,2.4723,2.4706,2.4707,2.4641,2.4634,2.4705,2.4704,2.4704,0,2.4461,2.4457,2.4494,2.4499,2.4514,2.4522,2.453,2.4566,2.4574,2.4599,2.4596,2.4608,2.4621,2.4633,2.4659,2.4672,2.4685,2.4661,2.4687,2.4679,2.4686,2.4687,2.4687,2.4655,2.4654,2.4653,2.4653,0,2.4396,2.4413,2.4424,2.4442,2.4452,2.4467,2.4484,2.4486,2.4526,2.4532,2.4543,2.4553,2.4571,2.4583,2.46,2.4615,2.4641,2.4644,2.4642,2.4633,2.4624,2.463,2.4705,2.4646,2.4647,2.4647,2.4647,2.4648,2.4344,2.4344,2.4371,2.4383,2.44,2.4415,2.4418,2.4442,2.4452,2.4471,2.4491,2.45,2.4522,2.4549,2.4562,2.4569,2.4583,2.4578,2.4577,2.4576,2.4572,2.4622,2.4572,2.4572,2.4572,2.4572,2.4572,0,2.4283,2.4302,2.4313,2.4337,2.4347,2.4372,2.4392,2.4399,2.4406,2.4426,2.4438,2.4451,2.4463,2.4491,2.4505,2.4506,2.4518,2.4508,2.4509,2.4513,2.4558,2.456,2.4498,2.4498,2.4498,2.4498,2.4498,2.4498,2.4252,2.4254,2.4274,2.4284,2.4303,2.4314,2.4323,2.4338,2.4354,2.4368,2.4379,2.4397,2.442,2.4437,2.4449,2.4457,2.4461,2.4448,2.446,2.4502,2.4509,2.4516,2.4518,2.4449,2.4449,2.4414,2.4414,2.4414]}]]